This is the latest recevied weather packets stored in our database for station/object N0ZRD-10. If no packets are shown the sender has not sent any weather packets the latest 10 day(s).
| Time | Temp. | Humidity | Pressure | Rain* | Wind** | Luminosity | Snow |
|---|---|---|---|---|---|---|---|
| 1777782079 | 10.56° C | 68% | - | 0 mm | - | - | - |
| 1777781477 | 10.56° C | 66% | - | 0 mm | - | - | - |
| 1777780878 | 10.56° C | 65% | - | 0 mm | - | - | - |
| 1777780275 | 10.56° C | 64% | - | 0 mm | - | - | - |
| 1777779674 | 10.56° C | 63% | - | 0 mm | - | - | - |
| 1777778473 | 11.11° C | 68% | - | 0 mm | - | - | - |
| 1777777872 | 11.11° C | 62% | - | 0 mm | - | - | - |
| 1777776670 | 12.22° C | 58% | - | 0 mm | - | - | - |
| 1777776070 | 12.78° C | 50% | - | 0 mm | - | - | - |
| 1777775468 | 13.33° C | 46% | - | 0 mm | - | - | - |
| 1777774867 | 13.89° C | 44% | - | 0 mm | - | - | - |
| 1777774264 | 13.89° C | 42% | - | 0 mm | - | - | - |
| 1777773663 | 13.89° C | 38% | - | 0 mm | - | - | - |
| 1777773061 | 14.44° C | 37% | - | 0 mm | - | - | - |
| 1777772461 | 14.44° C | 34% | - | 0 mm | - | - | - |
| 1777771859 | 14.44° C | 33% | - | 0 mm | - | - | - |
| 1777771258 | 15° C | 34% | - | 0 mm | - | - | - |
| 1777770658 | 15° C | 32% | - | 0 mm | - | - | - |
| 1777770056 | 15° C | 31% | - | 0 mm | - | - | - |
| 1777769456 | 15.56° C | 31% | - | 0 mm | - | - | - |
| 1777767051 | 15.56° C | 27% | - | 0 mm | - | - | - |
| 1777766450 | 16.11° C | 26% | - | 0 mm | - | - | - |
| 1777765849 | 15.56° C | 27% | - | 0 mm | - | - | - |
| 1777765247 | 16.11° C | 28% | - | 0 mm | - | - | - |
| 1777763439 | 16.67° C | 28% | - | 0 mm | - | - | - |
* Rain latest hour (hover to see other rain measurements)
** Current wind speed in m/s (hover to see current wind gust speed)